Terug naar catalogus

HAWK-10B

ActiefWetenschapSSO
NORAD 60545·PAYLOAD·🇺🇸 United States

Gelanceerd Aug 16, 2024 vanaf Vandenberg Space Force Base

Loading…

Volgende Passages (komende 24 uur)

TLE

VersSource: Space-Track

Epoch: Sep 14, 2026, 15:01 UTC

1 60545U 24149CF  26257.62610832  .00001678  00000-0  15181-3 0  9991
2 60545  97.6747 331.2444 0006360 139.7627 220.4066 14.96729438113360

Volg HAWK-10B in realtime met AllMySat

Download on the App Store